STARLINK-32783 (62606 NORAD) Tracking and Keplerian Element Data

This shows tracking and keplerian element data for the satellite.

Feedback or suggestion? Click here.




ElementValue
Catalog62606
NameSTARLINK-32783
Epoch Orbit5329
Epoch Day353.45216914
Epoch Year2025
RAAN11.0184
Inclination43.0054
Eccentricity0.000174
Argument of Perigee290.5429
Mean Anonmoly69.5236
Mean Motion15.27610749
Decay Rate0.00018546
L11 62606U 25008V 25353.45216914 .00018546 00000+0 68113-3 0 9990
L22 62606 43.0054 11.0184 0001740 290.5429 69.5236 15.27610749 53298



Live tracking and technical data element details for STARLINK-32783 (NORAD 62606). STARLINK-32783 can be tracked NOW for your location showing map with azimuth and elevation plus other details from your city location.







IsCatalogInMostPopularTable: catalog: 62606, numindb: 248
Update: records affected: 1



GetName: 62606 STARLINK-32783

Hit Count: updated at: Thu, 21 May 2026 10:16:09 GMT